Language: 


Des rapports , des résumés tant et plus, au choix de chacun....


Données statistiques de la station
Quotidien Rapport Juillet 11, 2017 Unités:  Anglais    Métrique   les deux
« Précédent Jour
Suivant Jour »
Quotidien Hebdomadaire Mensuel Annuel Actuel
  Haut: Bas: Moyen:
Température: 72 °F 58.1 °F 63.1 °F
Pt de rosée: 68 °F 55.4 °F 60.6 °F
Humidité: 97 % 71 % 91 %
Vitesse du vent: 12.3 mph 0 mph 4.1 mph
Rafales: 13.4 mph - -
Vent:- - WSW
Pression: 29.9 in 29.8 in -
Précipitation: 0.11 in    
Historical Graphs
 
 
Données statistiques pour Juillet 11, 2017
Heure Température Point de rosée Pression Vent Vitesse du vent Refales Humidité Pluie (taux horaire)
00:02 60.8 °F 57.2 °F 29.8 in SW 4 mph 9.6 mph 87 % 0 in
00:07 60.8 °F 57.2 °F 29.8 in WSW 4.7 mph 9.6 mph 87 % 0 in
00:12 60.8 °F 57.2 °F 29.8 in WSW 5.6 mph 10.5 mph 87 % 0 in
00:17 60.8 °F 57.2 °F 29.8 in SSW 5.8 mph 10.5 mph 87 % 0 in
00:22 60.8 °F 57.2 °F 29.8 in WSW 3.4 mph 10.7 mph 87 % 0 in
00:27 60.8 °F 57.2 °F 29.8 in SSW 4 mph 10.7 mph 87 % 0 in
00:32 60.8 °F 57.2 °F 29.8 in SSW 6.5 mph 8.7 mph 87 % 0 in
00:37 60.8 °F 57.2 °F 29.8 in SW 5.8 mph 11.2 mph 87 % 0 in
00:42 60.4 °F 57.2 °F 29.8 in WSW 6 mph 11.2 mph 92 % 0 in
00:47 60.4 °F 57.2 °F 29.8 in WSW 6 mph 10.1 mph 92 % 0 in
00:53 60.4 °F 57.2 °F 29.8 in WSW 4.9 mph 10.5 mph 92 % 0 in
00:58 60.1 °F 59 °F 29.8 in WSW 4.9 mph 10.5 mph 93 % 0 in
01:03 60.1 °F 59 °F 29.8 in WSW 6 mph 9.8 mph 93 % 0 in
01:08 59.9 °F 59 °F 29.8 in SW 4.3 mph 9.8 mph 93 % 0 in
01:13 59.7 °F 57.2 °F 29.8 in WSW 6.5 mph 7.6 mph 93 % 0 in
01:18 59.7 °F 57.2 °F 29.8 in WSW 4 mph 6.5 mph 93 % 0 in
01:23 59.7 °F 57.2 °F 29.8 in West 6.3 mph 7.6 mph 93 % 0 in
01:28 59.7 °F 57.2 °F 29.8 in WSW 6.3 mph 9.2 mph 93 % 0 in
01:33 59.7 °F 57.2 °F 29.8 in West 4.9 mph 9.2 mph 93 % 0 in
01:38 59.7 °F 57.2 °F 29.8 in WSW 3.8 mph 8.5 mph 93 % 0 in
01:43 59.4 °F 57.2 °F 29.8 in WSW 2.5 mph 8.5 mph 93 % 0 in
01:48 59.4 °F 57.2 °F 29.8 in WSW 5.8 mph 7.2 mph 93 % 0 in
01:53 59.4 °F 57.2 °F 29.8 in SSW 6.5 mph 8.5 mph 94 % 0 in
01:58 59.4 °F 57.2 °F 29.8 in WSW 4 mph 9.8 mph 94 % 0 in
02:03 59.4 °F 57.2 °F 29.8 in WSW 6 mph 9.8 mph 94 % 0 in
02:08 59.4 °F 57.2 °F 29.8 in West 5.8 mph 8.5 mph 94 % 0 in
02:13 59.4 °F 57.2 °F 29.8 in WNW 4 mph 7.6 mph 94 % 0 in
02:18 59.4 °F 57.2 °F 29.8 in WSW 5.4 mph 7.4 mph 94 % 0 in
02:23 59.4 °F 57.2 °F 29.8 in WSW 6.5 mph 7.4 mph 94 % 0 in
02:28 59.4 °F 57.2 °F 29.8 in SSW 5.4 mph 8.7 mph 94 % 0 in
02:33 59.4 °F 57.2 °F 29.8 in WSW 3.8 mph 10.1 mph 94 % 0 in
02:39 59.4 °F 57.2 °F 29.8 in WSW 7.6 mph 10.1 mph 94 % 0 in
02:44 59.4 °F 57.2 °F 29.8 in West 6 mph 8.7 mph 94 % 0 in
02:49 59.2 °F 57.2 °F 29.8 in WSW 8.1 mph 8.5 mph 94 % 0 in
02:54 59.2 °F 57.2 °F 29.8 in WSW 5.6 mph 8.5 mph 94 % 0 in
02:59 59 °F 57.2 °F 29.8 in WSW 5.6 mph 8.5 mph 94 % 0 in
03:04 59 °F 57.2 °F 29.8 in WSW 5.4 mph 8.5 mph 95 % 0 in
03:09 59 °F 57.2 °F 29.8 in West 6.5 mph 7.6 mph 95 % 0 in
03:14 59 °F 57.2 °F 29.8 in SW 4.7 mph 7.6 mph 95 % 0 in
03:19 59 °F 57.2 °F 29.8 in SW 7.2 mph 7.6 mph 95 % 0 in
03:24 59 °F 57.2 °F 29.8 in WSW 5.4 mph 7.6 mph 95 % 0 in
03:29 59 °F 57.2 °F 29.8 in WSW 3.4 mph 6.9 mph 95 % 0 in
03:34 59 °F 57.2 °F 29.8 in WSW 4.9 mph 7.2 mph 95 % 0 in
03:39 59 °F 57.2 °F 29.8 in WSW 5.4 mph 8.1 mph 95 % 0 in
03:44 59 °F 57.2 °F 29.8 in WSW 3.8 mph 8.1 mph 95 % 0 in
03:49 59 °F 57.2 °F 29.8 in WSW 4.3 mph 7.2 mph 95 % 0 in
03:54 59 °F 57.2 °F 29.8 in SW 1.3 mph 7.2 mph 95 % 0 in
03:59 59 °F 57.2 °F 29.8 in WSW 5.6 mph 7.6 mph 95 % 0 in
04:04 59 °F 57.2 °F 29.8 in WSW 5.6 mph 7.6 mph 95 % 0 in
04:09 59 °F 57.2 °F 29.8 in SW 2.5 mph 6 mph 95 % 0 in
04:15 59 °F 57.2 °F 29.8 in WSW 5.6 mph 6 mph 95 % 0 in
04:20 59 °F 57.2 °F 29.8 in Calm   7.4 mph 95 % 0 in
04:25 59 °F 57.2 °F 29.8 in SSW 2.7 mph 7.4 mph 95 % 0 in
04:30 59 °F 57.2 °F 29.8 in West 2.7 mph 7.2 mph 95 % 0 in
04:35 59 °F 57.2 °F 29.8 in Calm   6.3 mph 95 % 0 in
04:40 58.8 °F 59 °F 29.8 in WSW 1.1 mph 6.3 mph 96 % 0 in
04:45 58.8 °F 59 °F 29.8 in Calm   5.4 mph 96 % 0 in
04:50 58.6 °F 57.2 °F 29.8 in Calm   4.3 mph 96 % 0 in
04:55 58.5 °F 57.2 °F 29.8 in SSW 4 mph 4 mph 96 % 0 in
05:00 58.5 °F 57.2 °F 29.8 in Calm   4.3 mph 96 % 0 in
05:05 58.5 °F 57.2 °F 29.8 in West 3.1 mph 4.3 mph 96 % 0 in
05:10 58.3 °F 57.2 °F 29.8 in Calm   4.7 mph 96 % 0 in
05:15 58.3 °F 57.2 °F 29.8 in Calm   4.7 mph 96 % 0 in
05:20 58.1 °F 57.2 °F 29.8 in SSW 2.7 mph 4 mph 96 % 0 in
05:25 58.1 °F 57.2 °F 29.8 in SW 4 mph 6.3 mph 96 % 0 in
05:30 58.1 °F 57.2 °F 29.9 in WSW 7.2 mph 7.2 mph 96 % 0 in
05:32 58.3 °F 57.2 °F 29.9 in Calm   7.2 mph 96 % 0 in
05:37 58.1 °F 57.2 °F 29.9 in WSW 3.1 mph 7.2 mph 96 % 0 in
05:42 58.1 °F 57.2 °F 29.9 in Calm   6.5 mph 96 % 0 in
05:47 58.1 °F 57.2 °F 29.8 in SW 5.6 mph 5.6 mph 96 % 0 in
05:52 58.1 °F 57.2 °F 29.8 in SW 3.1 mph 5.6 mph 96 % 0 in
05:57 58.1 °F 57.2 °F 29.8 in Calm   4.7 mph 96 % 0 in
06:02 58.1 °F 57.2 °F 29.9 in Calm   5.4 mph 97 % 0 in
06:07 58.1 °F 57.2 °F 29.9 in Calm   5.4 mph 97 % 0 in
06:12 58.3 °F 57.2 °F 29.9 in WSW 5.8 mph 6 mph 97 % 0 in
06:17 58.5 °F 57.2 °F 29.9 in SSW 5.6 mph 6 mph 97 % 0 in
06:22 58.8 °F 59 °F 29.9 in WSW 2.7 mph 6.5 mph 97 % 0 in
06:27 59.2 °F 59 °F 29.9 in SSW 6 mph 7.4 mph 97 % 0 in
06:32 59.5 °F 59 °F 29.9 in WSW 3.4 mph 7.4 mph 97 % 0 in
06:37 59.7 °F 59 °F 29.9 in Calm   6 mph 97 % 0 in
06:42 59.7 °F 59 °F 29.9 in WSW 4.9 mph 7.8 mph 97 % 0 in
06:47 59.9 °F 59 °F 29.9 in SW 6.5 mph 8.1 mph 97 % 0 in
06:52 59.9 °F 59 °F 29.9 in WSW 3.8 mph 8.1 mph 97 % 0 in
06:57 60.1 °F 59 °F 29.9 in WSW 4.9 mph 7.4 mph 97 % 0 in
07:02 60.3 °F 59 °F 29.9 in WSW 6.5 mph 7.6 mph 97 % 0 in
07:07 60.4 °F 59 °F 29.9 in WSW 6 mph 8.7 mph 96 % 0 in
07:12 60.6 °F 60.8 °F 29.9 in SSW 4.9 mph 8.7 mph 96 % 0 in
07:17 60.8 °F 60.8 °F 29.9 in West 5.4 mph 7.2 mph 96 % 0 in
07:22 60.8 °F 60.8 °F 29.9 in WSW 6 mph 7.2 mph 96 % 0 in
07:27 61.2 °F 60.8 °F 29.9 in WSW 5.6 mph 7.2 mph 96 % 0 in
07:33 61.2 °F 60.8 °F 29.9 in SW 3.6 mph 7.2 mph 96 % 0 in
07:38 61.3 °F 60.8 °F 29.9 in SSW 7.6 mph 7.6 mph 95 % 0 in
07:43 61.3 °F 60.8 °F 29.9 in Calm   7.6 mph 95 % 0 in
07:48 61.3 °F 60.8 °F 29.9 in SW 6.3 mph 7.8 mph 95 % 0 in
07:53 61.3 °F 60.8 °F 29.9 in WSW 6.9 mph 10.3 mph 95 % 0 in
07:58 61.3 °F 60.8 °F 29.9 in SSW 5.6 mph 10.3 mph 95 % 0 in
08:03 61.3 °F 60.8 °F 29.8 in SW 4.9 mph 9.4 mph 95 % 0 in
08:08 61.3 °F 60.8 °F 29.8 in SSW 8.7 mph 10.3 mph 95 % 0 in
08:13 61.3 °F 60.8 °F 29.8 in SW 5.4 mph 10.3 mph 95 % 0 in
08:18 61.3 °F 60.8 °F 29.9 in WSW 6.3 mph 9.6 mph 95 % 0 in
08:23 61.3 °F 60.8 °F 29.9 in WSW 4.7 mph 9.6 mph 95 % 0 in
08:28 62.1 °F 60.8 °F 29.9 in SW 3.6 mph 8.5 mph 94 % 0 in
08:33 62.1 °F 60.8 °F 29.8 in WSW 2.7 mph 8.1 mph 93 % 0 in
08:38 62.2 °F 60.8 °F 29.8 in West 4.9 mph 8.1 mph 93 % 0 in
08:43 62.4 °F 60.8 °F 29.8 in WSW 3.8 mph 7.4 mph 93 % 0 in
08:48 62.6 °F 60.8 °F 29.9 in SW 6.3 mph 7.4 mph 93 % 0 in
08:53 62.8 °F 60.8 °F 29.9 in WSW 4 mph 7.6 mph 93 % 0 in
08:59 63.5 °F 62.6 °F 29.9 in WSW 1.6 mph 8.5 mph 93 % 0 in
09:03 65.1 °F 62.6 °F 29.9 in SSW 8.5 mph 9.6 mph 92 % 0 in
09:08 66 °F 64.4 °F 29.9 in SSW 4.9 mph 9.8 mph 92 % 0 in
09:14 66 °F 64.4 °F 29.9 in SSW 6.5 mph 9.8 mph 92 % 0 in
09:19 66 °F 64.4 °F 29.9 in WSW 3.8 mph 8.5 mph 92 % 0 in
09:24 66 °F 64.4 °F 29.9 in SSW 8.5 mph 8.5 mph 92 % 0 in
09:29 66 °F 64.4 °F 29.9 in WSW 6.3 mph 8.5 mph 92 % 0 in
09:34 66 °F 64.4 °F 29.9 in WSW 6.3 mph 8.5 mph 92 % 0 in
09:39 66 °F 64.4 °F 29.9 in South 1.6 mph 8.9 mph 92 % 0 in
09:44 66 °F 64.4 °F 29.9 in West 7.6 mph 10.1 mph 92 % 0 in
09:49 66 °F 64.4 °F 29.9 in WSW 7.8 mph 10.3 mph 92 % 0 in
09:54 66 °F 64.4 °F 29.9 in WSW 2.9 mph 8.7 mph 92 % 0 in
09:59 66 °F 64.4 °F 29.9 in WSW 6 mph 9.8 mph 92 % 0 in
10:04 66 °F 64.4 °F 29.9 in South 6 mph 9.8 mph 92 % 0 in
10:09 66 °F 64.4 °F 29.9 in SW 6.9 mph 7.8 mph 92 % 0 in
10:14 66 °F 64.4 °F 29.9 in SW 8.1 mph 8.1 mph 92 % 0 in
10:19 66 °F 64.4 °F 29.9 in West 8.5 mph 9.4 mph 92 % 0 in
10:24 66 °F 64.4 °F 29.9 in SSW 3.1 mph 9.4 mph 92 % 0 in
10:29 66 °F 64.4 °F 29.9 in WSW 7.8 mph 10.3 mph 92 % 0 in
10:34 66 °F 64.4 °F 29.9 in South 8.1 mph 10.3 mph 92 % 0 in
10:39 66 °F 64.4 °F 29.9 in SW 5.4 mph 9.6 mph 92 % 0 in
10:44 66 °F 64.4 °F 29.9 in WSW 8.1 mph 9.6 mph 92 % 0 in
10:49 66 °F 64.4 °F 29.9 in SSW 7.2 mph 8.1 mph 92 % 0 in
10:54 66 °F 64.4 °F 29.9 in WSW 5.4 mph 10.1 mph 92 % 0 in
10:59 66 °F 64.4 °F 29.9 in SSW 4 mph 10.1 mph 92 % 0 in
11:02 66 °F 64.4 °F 29.9 in West 2 mph 10.1 mph 92 % 0 in
11:07 66 °F 64.4 °F 29.9 in SSW 5.6 mph 9.6 mph 92 % 0 in
11:12 66 °F 64.4 °F 29.9 in SSW 5.4 mph 10.1 mph 92 % 0 in
11:17 66 °F 64.4 °F 29.9 in WSW 5.8 mph 10.1 mph 92 % 0 in
11:22 66 °F 64.4 °F 29.9 in WSW 12.3 mph 13.4 mph 92 % 0 in
11:27 66 °F 64.4 °F 29.9 in WSW 5.6 mph 13.4 mph 92 % 0 in
11:33 66 °F 64.4 °F 29.9 in SW 6 mph 10.7 mph 92 % 0 in
11:38 66 °F 64.4 °F 29.9 in SSW 5.4 mph 10.1 mph 92 % 0 in
11:43 66 °F 64.4 °F 29.9 in SW 8.1 mph 10.1 mph 92 % 0 in
11:48 66 °F 64.4 °F 29.9 in SW 6.3 mph 9.4 mph 92 % 0 in
11:53 66 °F 64.4 °F 29.9 in South 6.9 mph 11.9 mph 92 % 0 in
11:58 66 °F 64.4 °F 29.9 in West 8.5 mph 11.9 mph 92 % 0 in
12:03 66 °F 64.4 °F 29.9 in SSW 8.7 mph 10.3 mph 92 % 0 in
12:08 66 °F 64.4 °F 29.9 in SW 6.3 mph 10.3 mph 92 % 0 in
12:13 66 °F 64.4 °F 29.9 in West 7.4 mph 10.3 mph 92 % 0 in
12:18 66 °F 64.4 °F 29.9 in SW 3.8 mph 12.1 mph 92 % 0 in
12:23 66 °F 64.4 °F 29.9 in SSW 7.4 mph 12.1 mph 92 % 0 in
12:28 66 °F 64.4 °F 29.9 in SW 7.2 mph 8.7 mph 92 % 0 in
12:33 66 °F 64.4 °F 29.9 in SSW 6.5 mph 9.6 mph 92 % 0 in
12:38 66 °F 64.4 °F 29.9 in WSW 4.3 mph 12.3 mph 92 % 0 in
12:43 66 °F 64.4 °F 29.9 in WSW 5.8 mph 12.3 mph 92 % 0 in
12:48 66 °F 64.4 °F 29.9 in SW 7.4 mph 8.9 mph 92 % 0 in
12:53 66 °F 64.4 °F 29.9 in WSW 7.4 mph 10.1 mph 92 % 0 in
12:58 66 °F 64.4 °F 29.9 in West 8.1 mph 10.1 mph 92 % 0 in
13:03 66 °F 64.4 °F 29.9 in WSW 7.6 mph 11 mph 92 % 0 in
13:08 66 °F 64.4 °F 29.9 in WSW 6.5 mph 11 mph 92 % 0 in
13:13 66 °F 64.4 °F 29.9 in SW 5.8 mph 10.1 mph 92 % 0 in
13:18 66 °F 64.4 °F 29.9 in WSW 3.6 mph 8.7 mph 92 % 0 in
13:23 66 °F 64.4 °F 29.9 in WSW 5.8 mph 8.7 mph 92 % 0 in
13:28 66 °F 64.4 °F 29.9 in SSW 4 mph 8.7 mph 92 % 0 in
13:33 66 °F 64.4 °F 29.9 in SW 2.9 mph 8.7 mph 92 % 0 in
13:38 66 °F 64.4 °F 29.9 in SSW 7.2 mph 8.7 mph 92 % 0 in
13:43 66 °F 64.4 °F 29.9 in SSW 7.2 mph 9.6 mph 92 % 0 in
13:49 66 °F 64.4 °F 29.9 in WSW 5.8 mph 10.1 mph 92 % 0 in
13:54 66 °F 64.4 °F 29.9 in WSW 4.3 mph 10.3 mph 92 % 0 in
13:59 66 °F 64.4 °F 29.9 in WSW 5.6 mph 10.3 mph 92 % 0 in
14:04 66 °F 64.4 °F 29.9 in WSW 6.5 mph 10.7 mph 92 % 0 in
14:09 66 °F 64.4 °F 29.9 in WSW 6.3 mph 10.7 mph 92 % 0 in
14:14 66 °F 64.4 °F 29.9 in WSW 2.9 mph 9.6 mph 92 % 0 in
14:19 66 °F 64.4 °F 29.9 in WSW 2.9 mph 9.6 mph 92 % 0 in
14:24 66 °F 64.4 °F 29.9 in WSW 6.5 mph 8.5 mph 92 % 0 in
14:29 66 °F 64.4 °F 29.9 in SSW 3.4 mph 8.1 mph 92 % 0 in
14:34 66 °F 64.4 °F 29.9 in WSW 6.5 mph 9.8 mph 92 % 0 in
14:39 66 °F 64.4 °F 29.9 in WSW 0.9 mph 9.8 mph 92 % 0 in
14:44 66 °F 64.4 °F 29.9 in WSW 5.4 mph 7.6 mph 92 % 0 in
14:49 66 °F 64.4 °F 29.9 in SW 2.5 mph 7.2 mph 92 % 0 in
14:54 66 °F 64.4 °F 29.9 in SW 7.2 mph 7.8 mph 92 % 0 in
14:59 66 °F 64.4 °F 29.9 in West 9.4 mph 9.4 mph 92 % 0 in
15:04 66 °F 64.4 °F 29.9 in SW 1.3 mph 9.4 mph 92 % 0 in
15:09 66 °F 64.4 °F 29.9 in West 5.8 mph 8.1 mph 92 % 0 in
15:14 66 °F 64.4 °F 29.9 in SW 4 mph 11 mph 92 % 0 in
15:19 66 °F 64.4 °F 29.9 in West 7.6 mph 11 mph 92 % 0 in
15:24 66 °F 64.4 °F 29.9 in South 6.5 mph 10.1 mph 92 % 0 in
15:29 66 °F 64.4 °F 29.9 in WSW 6 mph 8.1 mph 92 % 0 in
15:34 66 °F 64.4 °F 29.9 in WSW 1.3 mph 11 mph 92 % 0 in
15:39 66 °F 64.4 °F 29.9 in SW 5.6 mph 11 mph 92 % 0 in
15:44 66 °F 64.4 °F 29.9 in SSW 4.7 mph 8.5 mph 92 % 0 in
15:49 66 °F 64.4 °F 29.9 in WSW 5.6 mph 8.7 mph 92 % 0 in
15:54 67.6 °F 59 °F 29.9 in SW 5.8 mph 8.7 mph 73 % 0 in
15:59 66.9 °F 59 °F 29.9 in SSW 3.4 mph 8.5 mph 76 % 0 in
16:05 66.6 °F 60.8 °F 29.9 in SSW 4.7 mph 6.5 mph 79 % 0 in
16:09 66 °F 60.8 °F 29.9 in Calm   6.5 mph 81 % 0 in
16:14 65.1 °F 59 °F 29.9 in WSW 9.8 mph 9.8 mph 83 % 0 in
16:20 64.4 °F 60.8 °F 29.9 in SW 5.8 mph 10.5 mph 87 % 0 in
16:25 64.6 °F 60.8 °F 29.9 in WSW 5.4 mph 10.5 mph 89 % 0.03 in
16:30 65.1 °F 62.6 °F 29.9 in WSW 5.4 mph 7.6 mph 91 % 0.03 in
16:35 65.8 °F 62.6 °F 29.9 in West 6 mph 6.3 mph 91 % 0.04 in
16:40 65.5 °F 62.6 °F 29.9 in WSW 6 mph 8.7 mph 90 % 0.04 in
16:45 65.8 °F 62.6 °F 29.9 in WSW 6 mph 8.7 mph 90 % 0.04 in
16:50 66.2 °F 62.6 °F 29.9 in SW 4 mph 8.5 mph 90 % 0.04 in
16:55 66.4 °F 64.4 °F 29.9 in SW 3.1 mph 6.5 mph 91 % 0.04 in
17:00 67.3 °F 64.4 °F 29.9 in SSW 4.5 mph 6.5 mph 90 % 0.04 in
17:05 68.5 °F 66.2 °F 29.9 in SSW 4 mph 6 mph 91 % 0.04 in
17:08 68.5 °F 66.2 °F 29.9 in SW 3.4 mph 6.5 mph 89 % 0.04 in
17:13 68.4 °F 64.4 °F 29.9 in SSW 3.1 mph 6.5 mph 88 % 0.05 in
17:18 70 °F 66.2 °F 29.8 in Calm   6.3 mph 88 % 0.05 in
17:19 70.5 °F 66.2 °F 29.8 in SSW 4 mph 6.3 mph 88 % 0.02 in
17:24 71.2 °F 66.2 °F 29.8 in SSW 3.1 mph 4.3 mph 86 % 0.02 in
17:29 72 °F 68 °F 29.9 in Calm   4.3 mph 84 % 0.02 in
17:34 71.1 °F 64.4 °F 29.9 in WSW 4.3 mph 6.5 mph 80 % 0.01 in
17:40 71.1 °F 64.4 °F 29.9 in SSW 3.6 mph 8.9 mph 79 % 0.01 in
17:45 71.2 °F 64.4 °F 29.9 in WSW 6.3 mph 8.9 mph 78 % 0.01 in
17:50 70.2 °F 62.6 °F 29.9 in WSW 5.8 mph 6.5 mph 75 % 0.01 in
17:55 69.6 °F 62.6 °F 29.9 in Calm   6.3 mph 76 % 0.01 in
18:00 69.3 °F 62.6 °F 29.9 in Calm   4.7 mph 77 % 0.01 in
18:05 69.4 °F 62.6 °F 29.9 in Calm   4.3 mph 79 % 0.01 in
18:10 69.3 °F 62.6 °F 29.9 in Calm   5.4 mph 78 % 0 in
18:15 69.3 °F 62.6 °F 29.9 in Calm   5.4 mph 78 % 0 in
18:20 69.3 °F 62.6 °F 29.9 in West 7.2 mph 7.2 mph 78 % 0 in
18:25 69.3 °F 62.6 °F 29.9 in SW 4.3 mph 7.4 mph 78 % 0 in
18:30 69.3 °F 62.6 °F 29.9 in WSW 5.6 mph 7.8 mph 78 % 0 in
18:35 69.3 °F 62.6 °F 29.9 in WSW 4.3 mph 7.8 mph 78 % 0 in
18:40 69.3 °F 62.6 °F 29.9 in West 4.5 mph 6.5 mph 78 % 0 in
18:45 69.3 °F 62.6 °F 29.9 in Calm   7.6 mph 78 % 0 in
18:50 69.3 °F 62.6 °F 29.9 in Calm   7.6 mph 78 % 0 in
18:55 69.3 °F 62.6 °F 29.9 in SW 3.4 mph 6.5 mph 78 % 0 in
19:00 69.3 °F 62.6 °F 29.9 in Calm   4 mph 78 % 0 in
19:05 69.3 °F 62.6 °F 29.9 in WSW 5.4 mph 5.4 mph 78 % 0 in
19:10 69.3 °F 62.6 °F 29.9 in Calm   5.4 mph 78 % 0 in
19:15 69.3 °F 62.6 °F 29.9 in West 10.5 mph 11 mph 78 % 0 in
19:20 69.3 °F 62.6 °F 29.9 in West 6 mph 13 mph 78 % 0 in
19:25 69.3 °F 62.6 °F 29.9 in West 7.8 mph 13 mph 78 % 0 in
19:31 69.3 °F 62.6 °F 29.9 in West 5.6 mph 10.3 mph 78 % 0 in
19:36 69.3 °F 62.6 °F 29.9 in West 5.8 mph 13 mph 78 % 0 in
19:41 69.3 °F 62.6 °F 29.9 in West 5.8 mph 13 mph 78 % 0 in
19:46 69.3 °F 62.6 °F 29.9 in WSW 7.4 mph 11.4 mph 78 % 0 in
19:51 69.3 °F 62.6 °F 29.9 in WSW 6 mph 11.4 mph 78 % 0 in
19:56 69.3 °F 62.6 °F 29.9 in West 5.8 mph 8.1 mph 78 % 0 in
20:01 69.3 °F 62.6 °F 29.9 in WSW 5.8 mph 7.4 mph 78 % 0 in
20:06 69.3 °F 62.6 °F 29.9 in WSW 5.8 mph 7.8 mph 78 % 0 in
20:11 65.3 °F 55.4 °F 29.9 in West 3.6 mph 7.8 mph 71 % 0 in
20:16 64.4 °F 55.4 °F 29.9 in West 5.6 mph 6.5 mph 74 % 0 in
20:21 63.7 °F 57.2 °F 29.9 in Calm   6.9 mph 77 % 0 in
20:26 63.1 °F 55.4 °F 29.9 in West 6 mph 8.1 mph 78 % 0 in
20:31 62.6 °F 55.4 °F 29.8 in West 4.9 mph 8.7 mph 79 % 0 in
20:36 62.1 °F 55.4 °F 29.8 in West 3.6 mph 8.7 mph 81 % 0 in
20:41 61.7 °F 57.2 °F 29.8 in Calm   8.1 mph 82 % 0 in
20:46 61.3 °F 55.4 °F 29.9 in Calm   4 mph 83 % 0 in
20:51 61.2 °F 57.2 °F 29.9 in Calm   2.7 mph 85 % 0 in
20:56 61 °F 57.2 °F 29.9 in Calm   2.7 mph 86 % 0 in
21:01 60.8 °F 57.2 °F 29.9 in Calm   2.2 mph 86 % 0 in
21:06 60.6 °F 57.2 °F 29.9 in Calm     87 % 0 in
21:11 60.4 °F 57.2 °F 29.9 in Calm     87 % 0 in
21:16 60.3 °F 57.2 °F 29.9 in Calm     88 % 0 in
21:21 60.1 °F 57.2 °F 29.9 in Calm     89 % 0.04 in
21:26 60.1 °F 57.2 °F 29.9 in Calm     90 % 0.04 in
21:31 60.1 °F 57.2 °F 29.9 in Calm     90 % 0.04 in
21:36 60.1 °F 57.2 °F 29.9 in Calm     91 % 0.04 in
21:41 59.9 °F 57.2 °F 29.9 in Calm     91 % 0.04 in
21:46 59.9 °F 57.2 °F 29.9 in Calm     91 % 0.04 in
21:51 59.9 °F 57.2 °F 29.9 in Calm     92 % 0.05 in
21:56 59.9 °F 57.2 °F 29.9 in Calm     92 % 0.05 in
22:01 59.7 °F 57.2 °F 29.8 in Calm     92 % 0.05 in
22:06 59.7 °F 57.2 °F 29.8 in Calm     92 % 0.05 in
22:11 59.7 °F 57.2 °F 29.8 in Calm     93 % 0.05 in
22:16 59.5 °F 57.2 °F 29.9 in Calm     93 % 0.05 in
22:21 59.5 °F 57.2 °F 29.9 in Calm     93 % 0.01 in
22:26 59.5 °F 57.2 °F 29.9 in Calm     93 % 0.01 in
22:31 59.5 °F 57.2 °F 29.9 in Calm     93 % 0.01 in
22:36 59.5 °F 57.2 °F 29.9 in Calm     94 % 0.01 in
22:41 59.5 °F 57.2 °F 29.9 in Calm     94 % 0.01 in
22:46 59.5 °F 57.2 °F 29.9 in Calm     94 % 0.01 in
22:51 59.5 °F 57.2 °F 29.9 in Calm     94 % 0 in
22:56 59.5 °F 57.2 °F 29.9 in Calm     94 % 0 in
23:01 59.5 °F 57.2 °F 29.9 in Calm     94 % 0 in
23:06 59.5 °F 57.2 °F 29.9 in Calm     94 % 0 in
23:11 59.5 °F 57.2 °F 29.9 in Calm     94 % 0 in
23:16 59.5 °F 57.2 °F 29.9 in Calm     94 % 0 in
23:21 59.5 °F 59 °F 29.9 in Calm     95 % 0 in
23:26 59.5 °F 59 °F 29.9 in Calm     95 % 0 in
23:31 59.5 °F 59 °F 29.9 in Calm     95 % 0 in
23:36 59.4 °F 59 °F 29.9 in Calm     95 % 0 in
23:41 59.4 °F 59 °F 29.9 in Calm     95 % 0 in
23:46 59.4 °F 59 °F 29.8 in East 1.1 mph 1.1 mph 95 % 0 in
23:51 59.2 °F 57.2 °F 29.8 in Calm   3.8 mph 95 % 0.01 in
23:56 59.2 °F 57.2 °F 29.8 in Calm   3.8 mph 95 % 0.01 in
Le Gheer Warneton
Courtoisie de Weather Underground - 2.25 mb

Mise a jour : 16-12-17 15:55:11
Généré par Cumulus 1.9.4 (1099)